Location: Splawn
(30.9202°N, 96.9858°W)
Time: 19:23:24
(UTC+00:00)

Tiros 1 - Visible Passes

Search period start: 21 February 2020 00:00
Search period end: 02 March 2020 00:00
Orbit: 631 x 664 km, 48.4° (Epoch: 21 February)

Date Brightness Start Highest point End Pass type
(mag) Time Alt. Az. Time Alt. Az. Time Alt. Az.
24 Feb 9.6 11:50:04 10° N 11:51:30 11° NNE 11:52:57 10° NNE visible
25 Feb 9.4 12:15:05 10° NNW 12:18:14 18° NNE 12:21:23 10° ENE visible
26 Feb 9.7 11:00:12 10° N 11:01:23 11° NNE 11:02:32 10° NNE visible
27 Feb 9.4 11:25:07 10° NNW 11:28:07 17° NNE 11:31:07 10° ENE visible
28 Feb 8.7 11:50:31 10° NNW 11:54:37 30° NNE 11:58:42 10° E visible
29 Feb 9.4 10:37:25 16° NNE 10:38:00 16° NNE 10:40:52 10° ENE visible
29 Feb 7.4 12:16:14 10° NW 12:20:50 69° NE 12:25:26 10° ESE visible
01 Mar 8.8 11:02:38 21° N 11:04:32 28° NNE 11:08:32 10° E visible
